Terminal Aerodrome Forecast
Issued by NWS

Home | Current Version | Previous Version | Text Only | Print | Product List | Glossary On
Versions: 1 2 3 4 5 6 7 8 9 10 11 12 13 14 15 16 17 18 19 20 21 22 23 24 25 26 27 28 29 30 31 32 33 34 35 36 37 38 39 40 41 42 43 44 45 46 47
000
FTUS45 KGJT 281130
TAFMTJ
TAF
KMTJ 281130Z 2812/2912 13003KT P6SM BKN100
     FM281700 32008KT P6SM SCT100
     FM282100 35008KT P6SM VCSH BKN100
     FM290200 14007KT P6SM SCT200=

USA.gov is the U.S. government's official web portal to all federal, state and local government web resources and services.